| Date | Time | Temp. (oF) | Dew Point (oF) | Rel. Hum. (%) | Press. (in.) | Wind Dir. | Wind Speed (mph) | Hourly Rainfall (in.) |
|
|---|---|---|---|---|---|---|---|---|---|
| 1 | 01/14 | 00:00 | 61 | 60 | 100 | 29.81 | SSW | 8 | 0.00 |
| 2 | 01/13 | 23:00 | 61 | 60 | 100 | 29.85 | S | 18 | 0.03 |
| 3 | 01/13 | 22:00 | 62 | 60 | 94 | 29.88 | S | 12 | 0.00 |
| 4 | 01/13 | 21:00 | 61 | 59 | 96 | 29.90 | SSE | 11 | 0.00 |
| 5 | 01/13 | 20:00 | 61 | 59 | 94 | 29.92 | S | 5 | 0.00 |
| 6 | 01/13 | 19:00 | 62 | 60 | 94 | 29.92 | SSE | 8 | 0.00 |
| 7 | 01/13 | 18:00 | 63 | 61 | 94 | 29.93 | SSE | 8 | 0.00 |
| 8 | 01/13 | 17:00 | 63 | 61 | 94 | 29.93 | S | 10 | 0.00 |
| 9 | 01/13 | 16:00 | 62 | 62 | 100 | 29.94 | SSE | 15 | 0.00 |
| 10 | 01/13 | 15:00 | 60 | 59 | 100 | 29.97 | S | 7 | 0.00 |
| 11 | 01/13 | 14:00 | 57 | 57 | 100 | 29.99 | SSE | 5 | 0.01 |
| 12 | 01/13 | 13:00 | 57 | 57 | 100 | 30.02 | SSE | 7 | 0.00 |
| 13 | 01/13 | 12:00 | 55 | 54 | 100 | 30.06 | S | 6 | 0.00 |
| 14 | 01/13 | 11:00 | 53 | 53 | 100 | 30.10 | SSE | 4 | 0.00 |
| 15 | 01/13 | 10:00 | 52 | 51 | 100 | 30.12 | SSW | 8 | 0.00 |
| 16 | 01/13 | 09:00 | 50 | 50 | 100 | 30.11 | SSE | 6 | 0.00 |
| 17 | 01/13 | 08:00 | 49 | 49 | 100 | 30.10 | SSE | 6 | 0.00 |
| 18 | 01/13 | 07:00 | 47 | 46 | 100 | 30.10 | SSE | 4 | 0.00 |
| 19 | 01/13 | 06:00 | 44 | 44 | 100 | 30.10 | SE | 0 | 0.00 |
| 20 | 01/13 | 05:00 | 44 | 44 | 100 | 30.13 | NNW | 0 | 0.00 |
| 21 | 01/13 | 04:00 | 43 | 42 | 100 | 30.12 | SE | 3 | 0.00 |
| 22 | 01/13 | 03:00 | 42 | 41 | 100 | 30.14 | NE | 3 | 0.00 |
| 23 | 01/13 | 02:00 | 42 | 41 | 100 | 30.16 | NE | 5 | 0.00 |
| 24 | 01/13 | 01:00 | 43 | 42 | 100 | 30.16 | ENE | 2 | 0.00 |